Location: De Greiden
(52.9496°N, 5.9137°E)
Time: 22:30:32
(UTC+00:00)

USA 229 - Pass Details

Date: 24 January 2021
Orbit: 964 x 1248 km, 63.4° (Epoch: 26 February)

Event Time Altitude Azimuth Distance (km) Brightness Sun altitude
Rises 18:30:28 0° 313° (NW) 3,929 7.3 -21.3°
Reaches altitude 10° 18:33:05 10° 311° (NW) 3,009 6.7 -21.7°
Maximum altitude 18:40:14 67° 231° (SW) 1,271 4.2 -22.8°
Enters shadow 18:47:29 11° 151° (SSE) 3,067 5.8 -23.9°
